Location: La Roë
(47.8956°N, 1.1115°W)
Time: 15:04:19
(UTC+00:00)

Daily predictions for brighter satellites

Satellite Brightness Start Highest point End
(mag) Time Altitude Azimuth Time Altitude Azimuth Time Altitude Azimuth
USA 276 2.2 20:36:02 10° WNW 20:38:56 69° NNE 20:41:57 10° E
Cosmos 2084 3.8 20:38:16 10° SSW 20:42:08 38° ESE 20:45:50 10° NE
SPOT 3 Rocket 4.3 20:39:08 10° SE 20:43:54 39° ENE 20:48:44 10° N
NOSS 2-2 (E) 3.2 20:46:36 10° SSW 20:49:43 39° SE 20:52:40 10° NE
NOSS 2-2 (C) 2.6 20:46:51 10° SSW 20:50:02 64° SE 20:53:08 10° NE
Nadezhda 3 Rocket 4.1 20:47:17 10° N 20:53:26 68° ENE 20:59:33 10° SSE
BREEZE-M DEB (TANK) 3.1 20:51:02 10° WNW 20:53:41 87° SSW 21:00:28 10° ESE
NOSS 2-3 (E) 3.4 20:52:23 10° SSW 20:55:53 46° ESE 20:59:42 10° NE
Cosmos 1844 3.9 20:50:47 10° SSW 20:56:35 83° WNW 21:02:24 10° NNE
Terra 1.9 20:53:01 10° SSE 20:57:41 65° ENE 21:02:23 10° N
Meteor 1-21 Rocket 4.2 20:58:15 10° S 21:03:47 84° E 21:09:21 10° NNE
USA 305 4.4 21:00:57 10° WNW 21:04:25 31° NNW 21:07:37 10° NE
ATLAS CENTAUR R/B 1.3 21:03:18 10° NW 21:07:18 89° WSW 21:10:52 14° SE
GP-B 3.9 21:03:08 10° N 21:07:26 53° W 21:11:43 10° SSW
Cosmos 1437 Rocket 4.2 21:07:19 13° SE 21:09:12 18° E 21:11:45 10° NE
Okean 1 Rocket 4.4 21:05:47 10° NNW 21:09:56 39° W 21:14:05 10° SSW
Cosmos 1833 Rocket 3.3 21:08:08 10° NNW 21:13:36 47° NE 21:18:22 13° SE
NOSS 2-3 (C) 3.1 21:10:01 10° SSW 21:13:36 69° SE 21:17:36 10° NE
Meteor 2-1 Rocket 4.3 21:08:14 10° N 21:13:52 70° ENE 21:18:59 12° SSE
Cosmos 1455 Rocket 3.2 21:10:49 10° NNW 21:15:15 78° W 21:19:35 10° S
Cosmos 1975 Rocket 3.1 21:13:50 10° S 21:18:16 75° E 21:22:45 10° NNE
Cosmos 1025 Rocket 3.7 21:14:35 10° SSW 21:18:44 54° WNW 21:22:56 10° N
Cosmos 44 4.1 21:14:13 10° S 21:18:56 34° ESE 21:23:31 10° NE
Orbus 7S? 3.2 21:16:53 10° WNW 21:19:32 43° SW 21:21:20 18° SSE
Lacrosse 5 2.5 21:15:58 10° WSW 21:20:58 60° NNW 21:26:00 10° NE
ERS-1 Rocket 3.3 21:18:26 10° S 21:23:24 65° WSW 21:28:24 10° NNW
Spot 2 Rocket 3.5 21:19:30 11° SSE 21:24:23 86° WSW 21:29:32 10° NNW
Cosmos 220 Rocket 4.2 21:21:05 10° NNW 21:25:10 57° ENE 21:28:09 18° SE
Cosmos 2082 Rocket 3.9 21:22:02 10° N 21:26:24 22° NE 21:30:44 10° E
NOSS 2-2 (D) 2.8 21:24:14 10° SW 21:27:29 81° NW 21:30:38 10° NE
ATLAS 5 CENTAUR R/B 3.3 21:24:37 10° W 21:27:38 29° NW 21:31:00 10° NNE
USA 307 4.3 21:24:04 10° WNW 21:27:41 35° N 21:31:11 10° ENE
Landsat 5 4.3 21:27:20 10° NNE 21:31:26 36° E 21:34:10 18° SSE
Cosmos 1844 Rocket 4.1 21:27:31 10° SW 21:32:46 41° NW 21:38:03 10° NNE
Cosmos 2278 Rocket 3.4 21:31:13 16° SE 21:33:55 23° ESE 21:38:16 10° NE
Cosmos 1606 2.4 21:32:01 10° N 21:35:37 89° WSW 21:38:05 19° S
Cosmos 1339 Rocket 4.5 21:31:42 10° N 21:37:59 89° W 21:43:24 14° S
Cosmos 2298 Rocket 4.4 21:33:31 12° S 21:38:09 46° ESE 21:43:15 10° NNE
MetOp-A 4.1 21:35:02 18° SE 21:38:12 50° ENE 21:42:24 10° N
Okean O Rocket 4.4 21:36:52 10° WSW 21:38:29 12° W 21:40:05 10° WNW
Cosmos 2341 Rocket 4.1 21:33:39 13° S 21:39:15 60° E 21:45:29 10° NNE
Cosmos 614 Rocket 4.4 21:36:14 10° NNW 21:41:10 49° ENE 21:44:35 19° SE
Meteor 1-11 4.3 21:36:41 10° S 21:42:26 86° WNW 21:48:09 10° N
Cosmos 1869 3.4 21:43:39 10° NNW 21:47:28 70° W 21:50:08 19° S
Cosmos 1536 Rocket 4.0 21:47:09 22° SSE 21:49:32 42° E 21:53:37 10° NNE
CZ-4C R/B 4.3 21:43:54 10° NNW 21:49:32 30° NNE 21:56:16 10° E
Ariane Rocket 3.5 21:47:25 13° S 21:51:50 55° W 21:56:49 10° NNW
ISS -2.5 21:49:26 10° WNW 21:52:36 41° N 21:55:47 10° ENE
MOS 1 Rocket 4.4 21:50:57 10° SSW 21:55:18 37° W 21:59:28 10° NNW
USA 290 4.2 21:58:14 15° E 21:58:14 15° E 21:59:42 10° ENE
ARIANE 5 R/B 3.6 21:58:54 20° ESE 22:01:16 34° ENE 22:05:19 10° N
GENESIS II 3.8 21:58:26 10° NW 22:02:01 86° SW 22:03:31 33° SE
BREEZE-M DEB (TANK) 3.6 21:52:31 10° WNW 22:04:02 56° SW 22:06:11 26° SSE
ATLAS 3B R/B 3.9 22:01:26 20° SE 22:04:07 25° ESE 22:09:58 10° ENE
Cosmos 1727 Rocket 4.5 21:58:48 10° N 22:04:57 49° ENE 22:08:48 22° SE
Cosmos 2228 2.9 22:01:32 10° NNW 22:05:45 80° W 22:08:06 25° S
Cosmos 1943 Rocket 3.2 22:08:20 23° SE 22:10:15 28° ESE 22:14:58 10° NE
Geosat 4.1 22:05:33 10° NNE 22:10:35 76° WNW 22:15:35 10° SW
Cosmos 2098 4.5 22:09:33 23° SSW 22:11:41 78° W 22:14:50 10° N
USA 276 2.8 22:10:18 10° W 22:13:03 33° SSW 22:13:09 33° SSW
Cosmos 1821 Rocket 4.3 22:09:49 23° SSE 22:13:35 52° E 22:19:43 10° NNE
Cosmos 1125 Rocket 4.3 22:10:46 10° SW 22:15:57 52° WNW 22:21:09 10° NNE
Gbstr 26 Del rocket 4.1 22:13:49 10° W 22:18:25 56° N 22:24:07 10° ENE
Cosmos 2150 Rocket 4.1 22:14:23 10° SSW 22:19:47 84° WNW 22:25:16 10° NNE
ALOS 2 4.4 22:19:19 15° E 22:21:30 22° ENE 22:24:51 10° NNE
Cosmos 2084 Rocket 4.1 22:21:27 10° NNW 22:25:18 44° NE 22:27:21 23° ESE
NOSS 3-1 (C) 3.0 22:24:27 16° SSW 22:28:21 65° SE 22:34:08 10° NE
SeaSat 1 3.4 22:26:56 18° ESE 22:30:03 39° NE 22:34:36 10° NNW
Terra 4.1 22:32:42 10° SW 22:35:43 17° W 22:38:44 10° NW
Cosmos 2366 rocket 4.2 22:30:37 15° SSW 22:35:45 68° W 22:41:54 10° N
Cosmos 1812 3.2 22:32:22 10° N 22:35:45 39° ENE 22:36:28 35° ESE
USA 305 4.3 22:34:04 10° NW 22:37:17 28° N 22:40:06 10° ENE
Cosmos 1238 Rocket 4.4 22:38:39 10° NNE 22:41:16 20° ENE 22:42:01 19° E
Aureole 2 4.1 22:41:11 63° SE 22:41:20 64° ESE 22:44:39 10° NNE
BREEZE-M R/B 3.6 22:37:24 10° WSW 22:41:34 79° SSE 22:54:43 10° ENE
PSLV R/B 4.1 22:40:05 10° NNE 22:43:59 51° E 22:44:51 42° SE
ATLAS CENTAUR R/B 3.8 22:42:58 10° W 22:44:19 11° WSW 22:45:40 10° SW
Cosmos 1437 Rocket 4.1 22:42:03 15° SW 22:44:35 32° WNW 22:47:54 10° N
Cosmos 1892 Rocket 3.9 22:45:05 37° SE 22:46:22 50° E 22:50:40 10° NNE
Cosmos 1140 Rocket 4.2 22:47:23 10° NNW 22:52:18 45° ENE 22:54:49 26° ESE
Cosmos 1833 Rocket 3.9 22:52:22 10° NW 22:57:19 32° WSW 23:00:03 21° SSW
MINOTAUR 4 R/B 4.3 22:54:49 10° NNE 22:57:02 39° ENE 22:57:02 39° ENE
Cosmos 2239 Rocket 4.4 22:55:30 30° S 22:58:41 76° E 23:04:56 10° NNE
Cosmos 44 4.4 22:54:58 10° WSW 23:00:01 47° NW 23:04:53 10° NNE
SL-08 R/B 4.4 22:57:34 31° S 23:00:40 78° E 23:06:48 10° NNE
BREEZE-M DEB (TANK) 3.5 22:58:11 10° WNW 23:01:00 84° NNE 23:08:12 10° ESE
USA 307 4.2 22:58:01 10° WNW 23:01:33 34° N 23:04:49 10° ENE
Cosmos-2242 4.4 23:00:58 10° NNE 23:04:36 27° ENE 23:05:51 23° E
Lacrosse 5 3.8 23:00:16 10° WNW 23:04:45 30° N 23:09:14 10° NE
Cosmos 2123 Rocket 4.2 22:58:35 10° N 23:04:51 64° ENE 23:07:51 32° SSE
Cosmos 1606 Rocket 4.0 23:01:22 10° NNW 23:05:36 53° W 23:07:01 36° SSW
NOSS 3-1 (A) 3.1 23:03:57 37° S 23:05:47 58° ESE 23:11:31 10° NE
Cosmos 1726 Rocket 3.6 23:03:30 10° NNW 23:07:49 68° W 23:09:05 43° SSW
Cosmos 1000 Rocket 4.4 23:03:31 10° N 23:09:43 83° W 23:12:37 34° S
Cosmos 2082 Rocket 2.1 23:05:32 10° NNW 23:11:11 81° WSW 23:13:28 37° SSE
Cosmos 2278 Rocket 2.6 23:12:59 16° SW 23:17:31 63° WNW 23:23:09 10° NNE
ULPM Upper Stage 2.7 23:15:18 10° NW 23:19:41 82° NE 23:20:59 45° SE
Cosmos 2369 Rocket 3.6 23:19:37 20° ESE 23:20:30 20° E 23:24:30 10° NE
H-2A R/B 2.2 23:20:31 58° S 23:21:12 79° WSW 23:25:03 10° NNW
PSLV R/B 4.4 23:17:41 10° NNE 23:21:42 36° E 23:22:20 34° ESE
ISS -3.5 23:26:21 10° WNW 23:29:40 67° NNE 23:30:09 56° ENE
USA 290 3.7 23:30:56 27° W 23:31:49 32° WNW 23:34:46 10° N
Cosmos 2058 Rocket 3.1 23:29:18 10° NNW 23:33:38 70° W 23:34:37 50° SSW
USA 229 DEB 4.2 23:32:18 32° SE 23:33:40 35° ESE 23:39:34 10° NE
USA 229 4.2 23:32:27 32° SE 23:33:48 35° ESE 23:39:41 10° NE
Cosmos 1782 2.9 23:30:22 10° N 23:34:06 54° ENE 23:34:35 50° ESE
CRYOSAT 2 4.4 23:31:40 10° N 23:36:35 71° E 23:37:58 46° SSE
ARIANE 5 R/B 4.0 23:36:22 24° SW 23:37:41 28° W 23:41:32 10° NW
Cosmos 1378 3.7 23:35:07 10° N 23:38:06 38° ENE 23:38:06 38° ENE
CZ-4C R/B 3.1 23:32:02 10° NW 23:39:03 74° NE 23:45:35 19° SE
COSMOS 2455 4.5 23:34:26 10° NNW 23:39:44 30° NE 23:44:59 10° E
COSMOS 2406 3.3 23:35:19 10° NNW 23:40:56 61° WSW 23:42:50 40° S
Meteor 2-2 Rocket 4.4 23:35:17 10° N 23:41:00 66° ENE 23:43:24 36° SE
Cosmos 1934 Rocket 4.0 23:39:13 34° SSW 23:42:09 83° W 23:48:24 10° N
Dummy Sat-02 4.5 23:38:40 10° N 23:42:22 78° W 23:42:41 71° SW
Cosmos 2221 4.4 23:41:53 10° NNE 23:45:12 22° ENE 23:46:52 17° E
Cosmos 2285 Rocket 4.4 23:45:33 10° NNW 23:51:55 59° ENE 23:55:34 26° SE
Cosmos 1943 Rocket 2.8 23:49:48 19° SW 23:53:41 53° WNW 23:59:12 10° NNE
Cosmos 2058 3.7 23:54:52 34° WSW 23:55:59 43° WNW 23:59:55 10° N
